Location: Unspecified
(0.0000°N, 0.0000°E)
Time: 02:20:17
(UTC+01:00)

Vanguard 1 - Visible Passes

Search period start: 22 December 2014 00:00
Search period end: 01 January 2015 00:00
Orbit: 653 x 3834 km, 34.2° (Epoch: 20 December)

Date Brightness Start Highest point End Pass type
(mag) Time Alt. Az. Time Alt. Az. Time Alt. Az.
22 Dec 12.7 02:18:42 59° SSE 02:18:42 59° SSE 02:30:26 10° SE visible
22 Dec 13.1 04:31:24 24° WSW 04:38:43 30° SW 04:49:55 10° SSE visible
22 Dec 13.4 21:23:34 10° NNW 21:33:32 24° N 21:33:32 24° N visible
22 Dec 13.8 23:45:35 10° NW 00:25:36 18° ESE 00:28:25 10° ESE visible
23 Dec 12.7 02:38:18 60° S 02:38:18 60° S 02:51:50 10° SE visible
23 Dec 13.3 04:50:59 14° WSW 05:00:56 22° SW 05:10:28 10° S visible
23 Dec 13.5 19:25:19 10° N 19:30:34 12° NNE 19:36:44 10° NE visible
23 Dec 13.3 21:44:50 10° NNW 21:53:56 27° N 21:53:56 27° N visible
24 Dec 13.5 00:45:07 27° ESE 00:45:07 27° ESE 00:50:46 10° ESE visible
24 Dec 12.8 02:57:47 51° SW 02:57:47 51° SW 03:13:03 10° SE visible
24 Dec 13.5 05:14:08 10° WSW 05:23:27 16° SSW 05:30:40 10° S visible
24 Dec 13.4 19:46:23 10° N 19:54:14 15° NNE 20:01:40 12° NE visible
24 Dec 13.3 22:06:03 10° NNW 22:14:27 29° N 22:14:27 29° N visible
25 Dec 13.3 01:04:31 37° SE 01:04:31 37° SE 01:12:45 10° SE visible
25 Dec 13.0 03:17:11 40° SW 03:19:19 40° SW 03:34:07 10° SSE visible
25 Dec 13.6 05:42:27 10° SW 05:46:19 11° SSW 05:49:45 10° SSW visible
25 Dec 13.3 20:07:19 10° NNW 20:17:37 19° NNE 20:22:17 18° NE visible
25 Dec 13.3 22:27:20 10° NW 22:35:04 31° NNW 22:35:04 31° NNW visible
26 Dec 13.1 01:23:48 46° SE 01:23:48 46° SE 01:34:28 10° SE visible
26 Dec 13.3 03:36:28 29° WSW 03:41:36 31° SW 03:55:03 10° SSE visible
26 Dec 13.2 20:28:14 10° NNW 20:40:41 25° NNE 20:43:02 24° NE visible
26 Dec 13.3 22:48:42 10° NW 23:30:19 13° ESE 23:31:22 10° ESE visible
27 Dec 13.0 01:42:58 52° S 01:42:58 52° S 01:55:57 10° SE visible
27 Dec 13.5 03:55:37 19° WSW 04:04:10 24° SSW 04:15:54 10° SSE visible
27 Dec 13.0 20:49:11 10° NNW 21:03:24 32° NE 21:03:59 31° NE visible
27 Dec 13.4 23:10:13 10° NW 23:49:20 22° ESE 23:53:50 10° ESE visible
28 Dec 13.0 02:01:58 49° SSW 02:01:58 49° SSW 02:17:17 10° SE visible
28 Dec 13.6 04:14:36 10° WSW 04:27:03 18° SSW 04:36:38 10° S visible
28 Dec 12.8 21:10:11 10° NNW 21:25:09 40° NNE 21:25:09 40° NNE visible
28 Dec 13.5 23:31:56 10° NW 00:08:10 32° SE 00:15:56 10° SE visible
29 Dec 13.2 02:20:47 41° SW 02:21:19 41° SW 02:38:30 10° SSE visible
29 Dec 13.8 04:41:43 10° SW 04:50:17 14° SSW 04:57:14 10° S visible
29 Dec 13.2 19:13:04 10° N 19:21:02 17° NNE 19:31:24 10° ENE visible
29 Dec 12.7 21:31:17 10° NW 21:46:37 50° NNE 21:46:37 50° NNE visible
29 Dec 13.3 23:53:56 10° WNW 00:26:45 42° SE 00:37:44 10° SE visible
30 Dec 13.4 02:39:20 31° SW 02:43:57 33° SSW 02:59:38 10° SSE visible
30 Dec 13.8 05:09:36 10° SSW 05:13:46 11° SSW 05:17:29 10° S visible
30 Dec 13.0 19:33:28 10° NNW 19:43:43 22° NE 19:55:35 13° ENE visible
30 Dec 12.5 21:52:31 10° NW 22:32:26 12° ESE 22:33:30 10° ESE visible
31 Dec 13.1 00:16:17 10° WNW 00:44:58 50° SSE 00:59:21 10° SE visible
31 Dec 13.6 02:57:31 20° WSW 03:06:52 26° SSW 03:20:46 10° SSE visible
31 Dec 12.9 19:54:06 10° NNW 20:06:04 30° NE 20:18:04 18° E visible
31 Dec 12.5 22:13:56 10° NW 22:50:08 24° ESE 22:56:05 10° ESE visible
